Weather reports worldwide

Advertisment
S. Pablo De Montes, Spain (8270): temperature & dewpoint: 22.01.2020 07:00:00 - 28.01.2020 07:00:00 (CET)S. Pablo De Montes, Spain (8270): wind speed & gusts: 22.01.2020 07:00:00 - 28.01.2020 07:00:00 (CET)S. Pablo De Montes, Spain (8270): wind direction: 22.01.2020 07:00:00 - 28.01.2020 07:00:00 (CET)S. Pablo De Montes, Spain (8270): precipitation: 22.01.2020 07:00:00 - 28.01.2020 07:00:00 (CET)
Date & Time tt [°C] td [°C] ff [km/h] ff [kn] fx [km/h] fx [kn] dd rr [mm]
28.01.2020 07:00:00 - - - - - - - -
28.01.2020 06:00:00 8,2 3,9 0 0 0 0 N 0,0
28.01.2020 05:00:00 7,5 4,8 0 0 0 0 N 0,1
28.01.2020 04:00:00 7,2 5,1 0 0 0 0 N 0,2
28.01.2020 03:00:00 7,3 5,0 0 0 0 0 N 0,0
28.01.2020 02:00:00 7,1 4,5 0 0 0 0 N 0,0
28.01.2020 01:00:00 7,0 4,6 0 0 0 0 N -
28.01.2020 00:00:00 6,8 4,1 0 0 0 0 N 0,0
27.01.2020 23:00:00 6,8 3,8 0 0 0 0 N 0,0
27.01.2020 22:00:00 6,8 3,4 0 0 0 0 N 0,0
27.01.2020 21:00:00 6,9 3,2 0 0 0 0 N 0,0
27.01.2020 20:00:00 6,8 2,5 0 0 0 0 N 0,0
27.01.2020 19:00:00 6,9 1,9 0 0 0 0 N -
27.01.2020 18:00:00 6,9 1,1 0 0 0 0 N 0,0
27.01.2020 17:00:00 7,5 0,9 0 0 0 0 N 0,0
27.01.2020 16:00:00 7,7 0,6 0 0 0 0 N 0,0
27.01.2020 15:00:00 7,7 0,9 0 0 0 0 N 0,0
27.01.2020 14:00:00 7,1 1,9 0 0 0 0 N 0,0
27.01.2020 13:00:00 - - - - - - - -
27.01.2020 12:00:00 6,3 1,7 0 0 0 0 N 0,0
27.01.2020 11:00:00 5,1 1,9 0 0 0 0 N 0,0
27.01.2020 10:00:00 4,6 1,9 0 0 0 0 N 0,0
27.01.2020 09:00:00 4,7 1,7 0 0 0 0 N 0,0
27.01.2020 08:00:00 4,0 1,7 0 0 0 0 N 0,0
27.01.2020 07:00:00 3,8 0,4 0 0 0 0 N -
27.01.2020 06:00:00 3,4 0,9 0 0 0 0 N 0,0
27.01.2020 05:00:00 3,7 -0,5 0 0 0 0 N 0,0
27.01.2020 04:00:00 3,9 -1,4 0 0 0 0 N 0,0
27.01.2020 03:00:00 4,4 -2,2 0 0 0 0 N 0,0
27.01.2020 02:00:00 4,4 -2,5 0 0 0 0 N 0,0
27.01.2020 01:00:00 5,1 -2,2 0 0 0 0 N -
27.01.2020 00:00:00 4,6 -2,0 0 0 0 0 N 0,0
26.01.2020 23:00:00 4,3 -2,5 0 0 0 0 N 0,0
26.01.2020 22:00:00 4,4 -2,2 0 0 0 0 N 0,0
26.01.2020 21:00:00 4,4 -2,2 0 0 0 0 N 0,0
26.01.2020 20:00:00 3,7 -2,0 0 0 0 0 N 0,0
26.01.2020 19:00:00 4,7 -1,4 0 0 0 0 N -
26.01.2020 18:00:00 5,7 -1,0 0 0 0 0 N 0,0
26.01.2020 17:00:00 6,8 -1,0 0 0 0 0 N 0,0
26.01.2020 16:00:00 8,1 -0,5 0 0 0 0 N 0,0
26.01.2020 15:00:00 8,6 0,9 0 0 0 0 N 0,0
26.01.2020 14:00:00 7,8 1,7 0 0 0 0 N 0,0
26.01.2020 13:00:00 7,0 1,7 0 0 0 0 N -
26.01.2020 12:00:00 7,9 0,4 0 0 0 0 N 0,0
26.01.2020 11:00:00 6,9 0,9 0 0 0 0 N 0,0
26.01.2020 10:00:00 6,0 0,2 0 0 0 0 N 0,0
26.01.2020 09:00:00 3,5 -0,3 0 0 0 0 N 0,0
26.01.2020 08:00:00 3,9 0,6 0 0 0 0 N 0,0
26.01.2020 07:00:00 5,1 0,9 0 0 0 0 N -
26.01.2020 06:00:00 5,3 1,1 0 0 0 0 N 0,0
26.01.2020 05:00:00 5,0 1,5 0 0 0 0 N 0,0
26.01.2020 04:00:00 4,6 1,5 0 0 0 0 N 0,0
26.01.2020 03:00:00 4,7 1,5 0 0 0 0 N 0,0
26.01.2020 02:00:00 4,2 1,3 0 0 0 0 N 0,0
26.01.2020 01:00:00 4,0 0,9 0 0 0 0 N -
26.01.2020 00:00:00 5,0 2,1 0 0 0 0 N 0,0
25.01.2020 23:00:00 5,1 2,7 0 0 0 0 N 0,0
25.01.2020 22:00:00 4,9 2,7 0 0 0 0 N 0,0
25.01.2020 21:00:00 4,9 1,5 0 0 0 0 N 0,0
25.01.2020 20:00:00 5,3 2,1 0 0 0 0 N 0,1
25.01.2020 19:00:00 5,5 2,3 0 0 0 0 N -
25.01.2020 18:00:00 5,5 1,9 0 0 0 0 N 0,0
25.01.2020 17:00:00 6,3 2,9 0 0 0 0 N 0,2
25.01.2020 16:00:00 6,3 3,4 0 0 0 0 N 0,2
25.01.2020 15:00:00 6,2 3,6 0 0 0 0 N 1,1
25.01.2020 14:00:00 6,0 3,4 0 0 0 0 N 1,0
25.01.2020 13:00:00 6,2 3,6 0 0 0 0 N -
25.01.2020 12:00:00 5,9 3,2 0 0 0 0 N 1,1
25.01.2020 11:00:00 5,8 3,0 0 0 0 0 N 0,1
25.01.2020 10:00:00 5,7 3,2 0 0 0 0 N 0,7
25.01.2020 09:00:00 5,1 2,9 0 0 0 0 N 0,1
25.01.2020 08:00:00 4,8 2,7 0 0 0 0 N 0,1
25.01.2020 07:00:00 5,1 2,9 0 0 0 0 N -
25.01.2020 06:00:00 5,2 2,9 0 0 0 0 N 0,0
25.01.2020 05:00:00 5,2 2,9 0 0 0 0 N 0,0
25.01.2020 04:00:00 5,3 2,7 0 0 0 0 N 0,2
25.01.2020 03:00:00 5,4 2,7 0 0 0 0 N 0,5
25.01.2020 02:00:00 5,2 2,3 0 0 0 0 N 4,4
25.01.2020 01:00:00 5,4 2,9 0 0 0 0 N -
25.01.2020 00:00:00 5,3 2,7 0 0 0 0 N 2,0
24.01.2020 23:00:00 4,9 1,7 0 0 0 0 N 0,1
24.01.2020 22:00:00 4,4 0,9 0 0 0 0 N 0,0
24.01.2020 21:00:00 4,6 1,7 0 0 0 0 N 0,0
24.01.2020 20:00:00 4,4 1,7 0 0 0 0 N 0,0
24.01.2020 19:00:00 5,3 2,3 0 0 0 0 N -
24.01.2020 18:00:00 6,5 2,3 0 0 0 0 N 0,0
24.01.2020 17:00:00 6,9 1,5 0 0 0 0 N 0,0
24.01.2020 16:00:00 6,8 1,3 0 0 0 0 N 0,0
24.01.2020 15:00:00 7,1 1,5 0 0 0 0 N 0,0
24.01.2020 14:00:00 7,3 1,9 0 0 0 0 N 0,0
24.01.2020 13:00:00 7,6 2,5 0 0 0 0 N -
24.01.2020 12:00:00 7,0 3,2 0 0 0 0 N 0,0
24.01.2020 11:00:00 5,8 3,4 0 0 0 0 N 0,0
24.01.2020 10:00:00 4,7 2,7 0 0 0 0 N 0,0
24.01.2020 09:00:00 4,5 2,5 0 0 0 0 N 0,4
24.01.2020 08:00:00 4,4 2,5 0 0 0 0 N 0,5
24.01.2020 07:00:00 4,4 2,3 0 0 0 0 N -
24.01.2020 06:00:00 4,3 2,1 0 0 0 0 N 0,8
24.01.2020 05:00:00 4,4 1,9 0 0 0 0 N 2,0
24.01.2020 04:00:00 4,5 1,7 0 0 0 0 N 2,9
24.01.2020 03:00:00 5,7 0,6 0 0 0 0 N 0,1
24.01.2020 02:00:00 6,1 0,0 0 0 0 0 N 0,0
24.01.2020 01:00:00 5,6 -0,3 0 0 0 0 N -
24.01.2020 00:00:00 5,2 0,2 0 0 0 0 N 0,0
23.01.2020 23:00:00 4,6 0,0 0 0 0 0 N 0,0
23.01.2020 22:00:00 4,7 0,0 0 0 0 0 N 0,0
23.01.2020 21:00:00 5,1 0,0 0 0 0 0 N 0,0
23.01.2020 20:00:00 6,1 0,6 0 0 0 0 N 0,0
23.01.2020 19:00:00 5,8 0,9 0 0 0 0 N -
23.01.2020 18:00:00 6,3 0,2 0 0 0 0 N 0,0
23.01.2020 17:00:00 6,9 -0,5 0 0 0 0 N 0,0
23.01.2020 16:00:00 7,1 -0,5 0 0 0 0 N 0,0
23.01.2020 15:00:00 7,3 -0,5 0 0 0 0 N 0,0
23.01.2020 14:00:00 7,0 0,4 0 0 0 0 N 0,0
23.01.2020 13:00:00 8,2 -0,5 0 0 0 0 N -
23.01.2020 12:00:00 7,0 -1,0 0 0 0 0 N 0,0
23.01.2020 11:00:00 6,3 1,1 0 0 0 0 N 0,0
23.01.2020 10:00:00 4,2 0,2 0 0 0 0 N 0,0
23.01.2020 09:00:00 3,0 -0,5 0 0 0 0 N 0,0
23.01.2020 08:00:00 2,7 -0,5 0 0 0 0 N 0,0
23.01.2020 07:00:00 2,4 -1,0 0 0 0 0 N -
23.01.2020 06:00:00 3,0 -0,3 0 0 0 0 N 0,0
23.01.2020 05:00:00 3,1 0,4 0 0 0 0 N 0,0
23.01.2020 04:00:00 2,2 -0,3 0 0 0 0 N 0,0
23.01.2020 03:00:00 2,6 0,0 0 0 0 0 N 0,0
23.01.2020 02:00:00 3,2 0,2 0 0 0 0 N 0,0
23.01.2020 01:00:00 3,8 0,4 0 0 0 0 N -
23.01.2020 00:00:00 4,2 0,0 0 0 0 0 N 0,0
22.01.2020 23:00:00 4,9 -0,7 0 0 0 0 N 0,0
22.01.2020 22:00:00 5,5 -0,5 0 0 0 0 N 0,0
22.01.2020 21:00:00 5,7 -0,7 0 0 0 0 N 0,0
22.01.2020 20:00:00 5,5 -0,5 0 0 0 0 N 0,0
22.01.2020 19:00:00 4,1 -1,2 0 0 0 0 N -
22.01.2020 18:00:00 5,9 0,0 0 0 0 0 N 0,0
22.01.2020 17:00:00 6,8 0,4 0 0 0 0 N 0,0
22.01.2020 16:00:00 6,7 0,4 0 0 0 0 N 0,0
22.01.2020 15:00:00 7,0 0,9 0 0 0 0 N 0,0
22.01.2020 14:00:00 7,3 -0,7 0 0 0 0 N 0,0
22.01.2020 13:00:00 5,9 0,4 0 0 0 0 N -
22.01.2020 12:00:00 6,8 1,1 0 0 0 0 N 0,0
22.01.2020 11:00:00 5,8 1,9 0 0 0 0 N 0,0
22.01.2020 10:00:00 3,8 1,3 0 0 0 0 N 0,0
22.01.2020 09:00:00 3,3 1,3 0 0 0 0 N 0,0
22.01.2020 08:00:00 3,3 1,3 0 0 0 0 N 0,0
22.01.2020 07:00:00 2,9 0,9 0 0 0 0 N -

tt = temperature
td = dewpoint
ff = wind speed
fx = gusts
dd = wind direction
rr = precipitation

Next stations